www.pogodaiklimat.ru

АРХИВ ПОГОДЫ в Бостоне

Время (UTC), дата Ветер
(напр.,м/с)
 
Видим.   Явления Облачность Т
(С)
Тd
(С)
f
(%)
Тe
(С)
Тes
(С)
Комфортность

P
(гПа)

Po
(гПа)
Тmin
(С)
Tmax
(С)
R
(мм)
SD
(см)
22:54 19.02 Ю  16 км  слабый дождь  10/5 1350 м
[средняя] 
+7.8  +4.4  79  +4  +4    1027.4  1026.6         
23:54 19.02 Ю  16 км  слабый дождь  10/8 1200 м
[средняя] 
+7.2  +5.6  90  +3  +3    1027.2  1026.6  +7.2  +10.0     
00:54 20.02 ЮЗ  16 км  слабый дождь  10/5 1170 м
[средняя] 
+8.3  +6.7  90  +4  +4    1026.4  1025.6         
01:54 20.02 ЮЗ  16 км  слабый дождь  10/10 330 м  +9.0  +7.0  87  +4  +4    1026.4  1025.6         
02:36 20.02 ЮЗ  8 км  слабый дождь, дымка  10/10 270 м  +9.0  +8.0  93  +4  +4      1025.6         
02:54 20.02 ЮЗ  14 км  слабый дождь  10/10 270 м  +8.9  +7.8  93  +4  +4    1026.1  1025.6      1.0   
03:52 20.02 ЮЗ  16 км  слабый дождь  10/2 270 м
[средняя] 
+9.0  +8.0  93  +5  +5      1024.6         
03:54 20.02 ЮЗ  16 км  слабый дождь  10/2 270 м
[средняя] 
+9.4  +8.3  93  +5  +5      1024.9         
04:12 20.02 ЮЗ  8
{11} 
16 км  слабый дождь  10/8 270 м
[средняя] 
+9.4  +8.3  93  +5  +5      1024.9         
04:54 20.02 ЮЗ  16 км  слабый дождь  10/10 420 м  +10.0  +9.0  93  +6  +6    1025.1  1024.6         
05:54 20.02 ЮЗ  7
{10} 
16 км  слабый дождь  10/10 330 м  +10.6  +10.0  96  +7  +7      1023.5  +7.2  +10.6  1.5   
06:42 20.02 ЮЗ  16 км    10/10 270 м  +11.1  +10.0  93  +7  +7      1023.2         
06:54 20.02 ЮЗ  7
{10} 
16 км    10/10 240 м  +11.0  +10.0  94  +7  +7    1023.7  1022.9         
07:54 20.02 ЮЗ  16 км    10/10 300 м  +11.7  +10.6  93  +8  +8    1023.5  1022.9         
08:54 20.02 ЮЗ  16 км    10/10 330 м  +12.0  +11.0  94  +9  +9    1023.5  1022.9      0.3   
09:54 20.02 ЮЗ  16 км    10/10 330 м  +11.1  +10.0  93  +7  +7    1023.5  1022.9         
10:54 20.02 ЮЗ  16 км    10/10 300 м  +11.1  +10.0  93  +8  +8    1023.8  1023.2         
11:54 20.02 ЮЗ  16 км    10/10 330 м  +11.0  +9.0  87  +8  +8    1024.2  1023.5  +10.6  +11.7  0.3   
12:49 20.02 ЮЗ  16 км    8/2 330 м
[средняя] 
+11.0  +10.0  94  +8  +8      1023.5         
12:54 20.02 ЮЗ  16 км    8/2 330 м
[средняя] 
+11.1  +10.0  93  +8  +8    1024.3  1023.5         
13:54 20.02 ЮЗ  16 км    8/2 330 м
[средняя] 
+12.0  +10.0  88  +10  +10    1024.3  1023.5         
14:54 20.02 ЮЗ  16 км    8/2 450 м
[средняя] 
+13.0  +11.0  88  +11  +12    1024.0  1023.2         
05:54 21.02 В  16 км    ясно  +5.0  +4.4  96  +3  +3    1025.3  1024.6    +8.9     
06:54 21.02 штиль  16 км    ясно  +5.6  +4.4  92  +5  +5    1024.9  1024.2         
07:54 21.02 ЮЗ  14 км    ясно  +10.0  +8.9  93  +7  +7    1024.2  1023.5         
12:54 21.02 ЮЗ  10
{14} 
16 км    10/10 330 м  +14.0  +13.0  94  +11  +11    1022.7  1021.8         
13:54 21.02 ЮЗ  9
{12} 
16 км    10/10 330 м  +16.1  +13.9  87  +14  +14    1022.7  1021.8         
14:54 21.02 ЮЗ  16 км    8/8 420 м
[верхняя] 
+17.0  +14.0  82  +15  +15    1022.5  1021.8         
15:03 21.02 ЮЗ  9
{14} 
16 км    8/5 420 м
[верхняя] 
+17.0  +14.0  82  +15  +15      1021.5         
15:54 21.02 ЮЗ  9
{13} 
16 км    8/2 900 м
[верхняя] 
+18.3  +13.3  73  +17  +18      1021.2         
16:54 21.02 ЮЗ  10  16 км    8/0 7500 м
[верхняя] 
+20.0  +13.9  68  +21  +21  комфорт  1021.0  1020.2         
17:54 21.02 Ю  16 км    8/0 7500 м
[верхняя] 
+20.6  +13.9  65  +22  +23  комфорт  1020.1  1019.5         
18:54 21.02 ЮЗ  16 км    8/0 7500 м
[верхняя] 
+21.7  +13.9  61  +25  +27  комфорт  1019.2  1018.5         
19:54 21.02 ЮЗ  16 км    8/0 6600 м
[верхняя] 
+21.7  +13.3  59  +24  +25  комфорт  1019.1  1018.5         
20:54 21.02 Ю  16 км    8/0 6600 м
[верхняя] 
+21.7  +13.3  59  +24  +25  комфорт  1019.0  1018.1         
21:54 21.02 Ю  16 км    5/0 6600 м
[верхняя] 
+18.9  +12.8  68  +19  +19    1019.3  1018.5         
22:54 21.02 ЮЗ  16 км    5/2 1500 м
[верхняя] 
+18.9  +13.3  70  +19  +19    1020.3  1019.5         
23:54 21.02 ЮЗ  16 км    8/0 2250 м
[средняя] 
+18.0  +13.0  73  +17  +17    1021.9  1021.2  +18.3       
03:54 22.02 С  16 км    10/10 1800 м  +13.9  +7.2  64  +12  +12    1027.9  1027.3         
04:54 22.02 С  16 км    10/10 1800 м  +12.8  +1.7  47  +10  +10    1029.0  1028.3         
05:54 22.02 СЗ  8
{11} 
16 км    10/10 1800 м  +11.1  -2.2  39  +8  +8    1030.7  1030.0         
06:54 22.02 СЗ  16 км    10/10 1950 м  +10.6  -6.7  29  +8  +8    1031.9  1031.3         
07:54 22.02 СЗ  16 км    10/0 2100 м
[средняя] 
+9.4  -4.4  37  +6  +6    1032.9  1032.0         
08:54 22.02 С  16 км    10/0 2100 м
[средняя] 
+7.2  -3.9  45  +3  +3    1033.7  1033.0         
09:54 22.02 С  16 км    10/0 2100 м
[средняя] 
+7.0  -4.0  45  +3  +3    1034.6  1034.0         
10:54 22.02 С  16 км    10/0 2250 м
[средняя] 
+6.1  -5.0  45  +3  +3    1035.7  1035.0         
11:54 22.02 С  16 км    10/0 2400 м
[средняя] 
+6.0  -6.0  42  +3  +3    1036.6  1036.1  +5.6       
12:54 22.02 С  16 км    10/0 2550 м
[средняя] 
+5.6  -5.0  46  +3  +3    1037.3  1036.4         

 

Местоположение метеостанции Logan International Airport: широта 42.3606 долгота -71.0106 высота над уровнем моря 6 м.

В архиве по умолчанию представлена погода в Бостоне за последние 1-2 суток. Обновление информации о фактической погоде в базе происходит ежечасно! Архивные данные за месяц целиком и за предыдущие месяцы Вы можете получить, выбрав интересующий диапазон дат из раскрывающегося списка и нажав кнопку "Ввод!".

Внимание! Архив погоды МЕТАР в базе сайта в настоящее время начинается c 1 января 2013 г. Нет смысла пытаться выбрать более раннюю дату.

Внимание! Время в таблицах - всемирное. Для получения местного времени необходимо прибавить поправку, которая в Бостоне равна -5 ч.

Ветер - указаны скорость ветра в м/с и направление, откуда дует ветер: С - северный, СВ - северо-восточный, В - восточный, ЮВ - юго-восточный, Ю - южный, ЮЗ - юго-западный, З - западный, СЗ - северо-западный.
Видимость - горизонтальная дальность видимости в метрах или километрах. При видимости от 1 до 10 км при отсутствии осадков обычно наблюдается дымка, при ухудшении видимости до 1 км и менее - туман. В сухую погоду видимость может ухудшаться дымом, пылью или мглою.
Атмосферные явления - указаны явления, наблюдавшиеся в указанный момент времени.
Облачность - указаны через наклонную черту верхняя и нижняя облачность в баллах и высота нижней границы облаков в метрах. Внимание: облачность, как и прочие метеорологические величины в США измеряются автоматическими метеостанциями. Указанные значения в баллах носят условный характер и показывают процент времени, в течение которого, в среднем, лазерный луч высотомера отражался от облаков обратно.
T - Температура воздуха - температура, измеренная на высоте 2 м над землей.
Td - Температура точки росы - температура, при понижении до которой содержащийся в воздухе водяной пар достигнет насыщения.
f - Относительная влажность воздуха - влажноcть воздуха, измеренная на высоте 2 м над землей.
Te - Эффективная температура - температура, которую ощущает одетый по сезону человек в тени. Характеристика душности погоды. При расчете учитывается влияние влажности воздуха и скорости ветра на теплоощущения человека.
Tes - Эффективная температура на солнце - температура, которую ощущает человек, с поправкой на солнечный нагрев. Характеристика знойности погоды. Зависит от высоты солнца над горизонтом, облачности и скорости ветра. Ночью, в пасмурную погоду, а также при ветре 12 м/с и более поправка равна нулю.
P - Атмосферное давление - приведенное к уровню моря атмосферное давление.
Po - Атмосферное давление - измеренное на уровне метеостанции атмосферное давление.
Tmin - Минимальная температура - минимум температуры воздуха на высоте 2 м над землей.
Tmax - Максимальная температура - максимум температуры воздуха на высоте 2 м над землей.
R - Количество осадков - Количество выпавших осадков за 3 или 6 часов, мм.
SD - Снежный покров - Высота снежного покрова, см.